Home   Weather   Troll Station   Past weeks
Flag for Antarctica

Past Weather in Troll Station, Antarctica — Yesterday and Last 2 Weeks

Now
1 °F

Frigid.


Feels Like: 1 °F
Forecast: 0 / -19 °F
Wind: 1 mph from South

Location: Troll

Current Time: Apr 6, 2020 at 4:55:29 am

Latest Report: Apr 6, 2020 at 4:00 am


Visibility: N/A

Pressure: 29.62 "Hg (24.72 "Hg at 1355m altitude)

Humidity: 21%

Dew Point: -30 °F

Location of Troll StationLocation

Past Weather in Troll Station — Graph

°F

Troll Station Temperature Yesterday

Maximum temperature yesterday: 0 °F (at 10:00 pm)
Minimum temperature yesterday: -15 °F (at 12:00 am)
Average temperature yesterday: -9 °F

High & Low Weather Summary for the Past Weeks

 TemperatureHumidityPressure
High20 °F (Mar 26, 6:00 pm)78% (Mar 22, 11:00 pm)29.63 "Hg (Mar 22, 11:00 pm)
Low-15 °F (Apr 5, 12:00 am)18% (Mar 30, 10:00 pm)28.41 "Hg (Mar 28, 3:00 pm)
Average5 °F49%29.02 "Hg
* Reported Mar 22 2:00 am — Apr 6 2:00 am, Troll Station. Weather by CustomWeather, © 2020

Note: Actual official high and low records may vary slightly from our data, if they occured in-between our weather recording intervals... More about our weather records

Troll Station Weather History for the Previous 24 Hours

Scroll right to see more
 ConditionsComfort  
Time TempWeatherWind HumidityBarometerVisibility
2:00 am
Mon, Apr 6
-1 °FFrigid.2 mph22%29.63 "HgN/A
1:00 am4 °FFrigid.3 mph18%29.55 "HgN/A
12:00 am2 °FFrigid.2 mph19%29.56 "HgN/A
11:00 pm
Sun, Apr 5
0 °FFrigid.1 mph20%29.58 "HgN/A
10:00 pm0 °FFrigid.1 mph18%29.56 "HgN/A
9:00 pm-1 °FFrigid.No wind18%29.56 "HgN/A
8:00 pm-2 °FPassing clouds.1 mph20%29.57 "Hg47 mi
7:00 pm-1 °FFrigid.1 mph20%29.53 "HgN/A
6:00 pm0 °FFrigid.1 mph21%29.50 "HgN/A
5:00 pm-6 °FFrigid.1 mph31%29.55 "HgN/A
4:00 pm-3 °FFrigid.1 mph29%29.53 "HgN/A
3:00 pm-7 °FFrigid.1 mph38%29.57 "HgN/A
2:00 pm-8 °FFrigid.1 mph45%29.58 "HgN/A
1:00 pm-9 °FFrigid.2 mph45%29.57 "HgN/A
12:00 pm-11 °FExtremely cold.3 mph53%29.57 "HgN/A
11:00 am-12 °FExtremely cold.2 mph57%29.58 "HgN/A
10:00 am-14 °FExtremely cold.2 mph51%29.58 "HgN/A
9:00 am-14 °FExtremely cold.No wind53%29.57 "HgN/A
8:00 am-14 °FClear.2 mph59%29.56 "Hg47 mi
7:00 am-14 °FExtremely cold.No wind62%29.54 "HgN/A
6:00 am-14 °FExtremely cold.No wind67%29.53 "HgN/A
5:00 am-15 °FExtremely cold.1 mph54%29.53 "HgN/A
4:00 am-13 °FExtremely cold.1 mph50%29.50 "HgN/A
Weather by CustomWeather, © 2020

See weather overview

Advertising